Regional Weather Roundup
Issued by NWS Newport/Morehead, NC

Current Version | Previous Version | Graphics & Text | Print | Product List | Glossary Off
Versions: 1 2 3 4 5 6 7 8 9 10 11 12 13 14 15 16 17 18 19 20 21 22 23 24 25 26 27 28 29 30 31 32 33 34 35 36 37 38 39 40 41 42 43 44 45 46 47 48 49 50

000
ASUS42 KMHX 241613
RWRMHX
WEATHER ROUNDUP FOR EASTERN NORTH CAROLINA
NATIONAL WEATHER SERVICE NEWPORT/MOREHEAD CITY NC
1200 PM EDT SUN MAY 24 2015

NOTE: "FAIR" INDICATES FEW OR NO CLOUDS BELOW 12,000 FEET
WITH NO SIGNIFICANT WEATHER AND/OR OBSTRUCTIONS TO VISIBILITY

NCZ015>017-031-032-045>047-102-103-241700-
NORTH COAST

CITY           SKY/WX    TMP DP  RH WIND       PRES   REMARKS
EDENTON        MOSUNNY   76  54  46 W3        30.42S
ELIZABETH CITY SUNNY     74  59  59 E7        30.42F
KITTY HAWK     SUNNY     72  46  40 SE8       30.42F
MANTEO         SUNNY     72  51  47 E10       30.43F

$$

NCZ045>047-081-094-103-104-241700-
CENTRAL COAST

CITY           SKY/WX    TMP DP  RH WIND       PRES   REMARKS
FRISCO         MOSUNNY   76  57  51 SE9       30.43S
SWANQUARTER      N/A     77 N/A N/A S9        30.39S

$$

NCZ095-097-098-100-101-241700-
SOUTHERN COAST

CITY           SKY/WX    TMP DP  RH WIND       PRES   REMARKS
BEAUFORT       SUNNY     77  54  44 SE9       30.41S
CEDAR ISLAND     N/A     75 N/A N/A NE6       30.44F
JACKSONVILLE   SUNNY     79  53  40 S9        30.41S
PINEY ISLAND   SUNNY    N/A N/A N/A E10       30.41F
WILMINGTON     MOSUNNY   78  56  46 SE9G17    30.41R


$$

NCZ011>013-027>030-043-044-078>080-089-090>093-098-241700-
COASTAL PLAIN

CITY           SKY/WX    TMP DP  RH WIND       PRES   REMARKS
AHOSKIE        SUNNY     76  56  49 CALM      30.41F
CLINTON        SUNNY     78  59  52 CALM      30.41F
ELIZABETHTOWN  SUNNY     79  56  46 SE8       30.40F
GOLDSBORO      MOSUNNY   79  56  45 VRB2      30.38F
GREENVILLE     SUNNY     79  55  44 CALM      30.41F
HAVELOCK       MOSUNNY   80  56  43 E8        30.42S
KENANSVILLE    MOSUNNY   78  56  46 S3        30.42F
KINSTON        SUNNY     77  54  44 CALM      30.41F
NEW BERN       SUNNY     79  54  41 SE8       30.42F
RICHLANDS      MOSUNNY   81  54  39 S7        30.41F
ROCKY MOUNT    MOSUNNY   78  57  48 SW8       30.40F
WASHINGTON     MOSUNNY   76  54  45 E3        30.41F
WHITEVILLE     MOSUNNY   78  53  41 E7        30.39F

$$

AMZ130-135-150-152-154-156-158-170-250-252-270-ANZ085-086-088-633-658-670-241700-
MARINE OBSERVATIONS

STATION/POSITION TIME  TEMP    WIND        PRES    WAVE   SWELL
                       AIR SEA DIR/SP/G            HT/PER HT/PER
                 (UTC) (F)     (DEG/KT/KT) (MB)    (FT/S) (FT/S)
CHESAPEAKE LIGHT 1500   62     160/  9/  9 1031.2
64 E VA BEACH    1550   64 62  120/  6/  6 1030.2    2/ 8   2/ 8
DUCK             1500   66 63  120/  6/  6 1029.6
2 E DUCK         1511      64                N/A     2/ 5
OREGON INLET     1500   68 68   70/  8/ 10 1030.5
13E OREGON INLT  1600      65                N/A     2/ 6
HATTERAS CG      1500   73 72  120/  5/  7 1030.0
DIAMOND BUOY     1550   73 78   50/  6/  8 1030.3    2/ 8   2/ 8
CAPE LOOKOUT     1600   74      70/  7/  8 1029.7
BEAUFORT LAB     1500   75 74  140/  6/  8 1029.1
27 SE WRIGHTSVLE 1500   71 77  110/  8/ 10   N/A
5 SE WRIGHTSVLE  1508   75 76  130/  8/ 12 1029.7
225 S CAPE HAT   1550   72 74   70/ 19/ 21 1028.4    6/ 6   2/12
41 SE CHARLESTON 1550   75 75   80/ 16/ 19 1027.6    5/ 8   3/ 8

$$


USA.gov is the U.S. government's official web portal to all federal, state and local government web resources and services.